| time (UTC) | temp F | wind direction | speed MPH | gust MPH | rain 1hr in | rain 24hr in | rain mn in | humidity % | barometer mb |
| 20260906110757 | 71 | 298 | 1.0 | 3.0 | 0.00 | 0.00 | 0.00 | 93 | 1014.1 |
| 20260906110517 | 72 | 299 | 1.0 | 4.0 | 0.00 | 0.00 | 0.00 | 93 | 1015.9 |
| 20260906105539 | 71 | 326 | 0.0 | 2.0 | 0.00 | 0.00 | 0.00 | 94 | 1015.9 |
| 20260906104515 | 71 | 0.0 | 0.0 | 0.00 | 0.00 | 0.00 | 94 | 1016.0 | |
| 20260906103757 | 71 | 0 | 0.0 | 0.0 | 0.00 | 0.00 | 0.00 | 93 | 1014.2 |
| 20260906103523 | 71 | 0.0 | 0.0 | 0.00 | 0.00 | 0.00 | 93 | 1016.0 | |
| 20260906102526 | 71 | 0.0 | 0.0 | 0.00 | 0.00 | 0.00 | 93 | 1015.9 | |
| 20260906101527 | 71 | 0.0 | 0.0 | 0.00 | 0.00 | 0.00 | 93 | 1015.9 | |
| 20260906100757 | 71 | 0 | 0.0 | 0.0 | 0.00 | 0.00 | 0.00 | 92 | 1014.0 |
| 20260906100529 | 72 | 0.0 | 0.0 | 0.00 | 0.00 | 0.00 | 92 | 1015.9 | |
| 20260906095532 | 72 | 0.0 | 0.0 | 0.00 | 0.00 | 0.00 | 91 | 1016.1 | |
| 20260906094516 | 73 | 0.0 | 0.0 | 0.00 | 0.00 | 0.00 | 90 | 1016.1 | |
| 20260906093757 | 72 | 0 | 0.0 | 0.0 | 0.00 | 0.00 | 0.00 | 89 | 1014.1 |
| 20260906093518 | 73 | 0.0 | 0.0 | 0.00 | 0.00 | 0.00 | 89 | 1016.1 | |
| 20260906092540 | 73 | 0.0 | 1.0 | 0.00 | 0.00 | 0.00 | 89 | 1016.1 | |
| 20260906091522 | 74 | 0.0 | 0.0 | 0.00 | 0.00 | 0.00 | 86 | 1016.0 | |
| 20260906090757 | 74 | 0 | 0.0 | 0.0 | 0.00 | 0.00 | 0.00 | 86 | 1013.9 |
| 20260906090524 | 75 | 0.0 | 0.0 | 0.00 | 0.00 | 0.00 | 86 | 1016.1 | |
| 20260906085526 | 75 | 0.0 | 0.0 | 0.00 | 0.00 | 0.00 | 84 | 1016.1 | |
| 20260906084528 | 75 | 113 | 0.0 | 2.0 | 0.00 | 0.00 | 0.00 | 83 | 1016.1 |
| 20260906083757 | 75 | 128 | 0.0 | 2.0 | 0.00 | 0.00 | 0.00 | 83 | 1013.9 |
| 20260906083524 | 76 | 128 | 1.0 | 3.0 | 0.00 | 0.00 | 0.00 | 83 | 1016.1 |
| 20260906082540 | 76 | 124 | 1.0 | 3.0 | 0.00 | 0.00 | 0.00 | 82 | 1016.2 |
| 20260906081516 | 76 | 114 | 2.0 | 4.0 | 0.00 | 0.00 | 0.00 | 81 | 1016.4 |
| 20260906080757 | 76 | 0 | 0.0 | 0.0 | 0.00 | 0.00 | 0.00 | 80 | 1014.0 |
| 20260906080518 | 76 | 0.0 | 0.0 | 0.00 | 0.00 | 0.00 | 80 | 1016.4 | |
| 20260906075520 | 77 | 338 | 0.0 | 1.0 | 0.00 | 0.00 | 0.00 | 79 | 1016.4 |
| 20260906074542 | 77 | 56 | 1.0 | 4.0 | 0.00 | 0.00 | 0.00 | 79 | 1016.7 |
| 20260906073758 | 77 | 117 | 1.0 | 6.0 | 0.00 | 0.00 | 0.00 | 77 | 1014.2 |
| 20260906073524 | 78 | 118 | 2.0 | 7.0 | 0.00 | 0.00 | 0.00 | 78 | 1016.8 |
| 20260906072526 | 78 | 130 | 1.0 | 5.0 | 0.00 | 0.00 | 0.00 | 77 | 1016.9 |
| 20260906071529 | 78 | 142 | 2.0 | 6.0 | 0.00 | 0.00 | 0.00 | 77 | 1016.9 |
| 20260906070757 | 78 | 85 | 2.0 | 6.0 | 0.00 | 0.00 | 0.00 | 76 | 1014.3 |
| 20260906070551 | 79 | 86 | 2.0 | 6.0 | 0.00 | 0.00 | 0.00 | 76 | 1016.9 |
| 20260906065553 | 79 | 147 | 3.0 | 6.0 | 0.00 | 0.00 | 0.00 | 76 | 1017.0 |
| 20260906064517 | 79 | 116 | 3.0 | 5.0 | 0.00 | 0.00 | 0.00 | 77 | 1017.0 |
| 20260906063757 | 79 | 102 | 2.0 | 5.0 | 0.00 | 0.00 | 0.00 | 77 | 1014.3 |
| 20260906063519 | 79 | 103 | 3.0 | 5.0 | 0.00 | 0.00 | 0.00 | 77 | 1017.0 |
| 20260906062521 | 79 | 102 | 2.0 | 4.0 | 0.00 | 0.00 | 0.00 | 77 | 1017.1 |
| 20260906061523 | 80 | 127 | 2.0 | 5.0 | 0.00 | 0.00 | 0.00 | 76 | 1017.3 |
| 20260906060757 | 79 | 97 | 1.0 | 4.0 | 0.00 | 0.00 | 0.00 | 75 | 1014.6 |
| 20260906060525 | 80 | 97 | 1.0 | 5.0 | 0.00 | 0.00 | 0.00 | 76 | 1017.3 |
| 20260906055521 | 80 | 88 | 1.0 | 3.0 | 0.00 | 0.00 | 0.00 | 75 | 1017.3 |
| 20260906054517 | 80 | 117 | 3.0 | 6.0 | 0.00 | 0.00 | 0.00 | 74 | 1017.3 |
| 20260906053757 | 80 | 131 | 3.0 | 4.0 | 0.00 | 0.00 | 0.00 | 73 | 1014.4 |
| 20260906053531 | 80 | 131 | 3.0 | 5.0 | 0.00 | 0.00 | 0.00 | 73 | 1017.2 |
| 20260906052515 | 80 | 147 | 3.0 | 5.0 | 0.00 | 0.00 | 0.00 | 73 | 1017.1 |
| 20260906051517 | 80 | 129 | 2.0 | 5.0 | 0.00 | 0.00 | 0.00 | 73 | 1016.9 |
| 20260906050757 | 80 | 117 | 3.0 | 4.0 | 0.00 | 0.00 | 0.00 | 72 | 1014.5 |
| 20260906050539 | 80 | 117 | 3.0 | 5.0 | 0.00 | 0.00 | 0.00 | 72 | 1017.3 |
| 20260906045541 | 80 | 98 | 3.0 | 6.0 | 0.00 | 0.00 | 0.00 | 72 | 1017.2 |
| 20260906044524 | 80 | 119 | 2.0 | 6.0 | 0.00 | 0.00 | 0.00 | 71 | 1017.2 |
| 20260906043757 | 79 | 91 | 2.0 | 5.0 | 0.00 | 0.00 | 0.00 | 71 | 1014.6 |
| 20260906043525 | 80 | 92 | 2.0 | 5.0 | 0.00 | 0.00 | 0.00 | 71 | 1017.3 |
| 20260906042528 | 78 | 106 | 1.0 | 4.0 | 0.00 | 0.00 | 0.00 | 73 | 1017.2 |
| 20260906041530 | 78 | 114 | 1.0 | 5.0 | 0.00 | 0.00 | 0.00 | 74 | 1017.0 |
| 20260906040757 | 77 | 0 | 0.0 | 0.0 | 0.00 | 0.00 | 0.00 | 75 | 1014.1 |
| 20260906040532 | 78 | 0.0 | 0.0 | 0.00 | 0.00 | 0.00 | 75 | 1016.6 | |
| 20260906035537 | 78 | 0.0 | 0.0 | 0.00 | 0.00 | 0.00 | 74 | 1016.6 | |
| 20260906034518 | 78 | 0.0 | 0.0 | 0.00 | 0.00 | 0.00 | 73 | 1016.6 | |
| 20260906033757 | 78 | 0 | 0.0 | 0.0 | 0.00 | 0.00 | 0.00 | 72 | 1013.9 |
| 20260906033519 | 79 | 0.0 | 0.0 | 0.00 | 0.00 | 0.00 | 73 | 1016.5 | |
| 20260906032541 | 79 | 0.0 | 0.0 | 0.00 | 0.00 | 0.00 | 70 | 1016.4 | |
| 20260906031517 | 80 | 0.0 | 0.0 | 0.00 | 0.00 | 0.00 | 69 | 1016.1 | |
| 20260906030757 | 80 | 0 | 0.0 | 0.0 | 0.00 | 0.00 | 0.00 | 67 | 1013.2 |
| 20260906030521 | 80 | 0.0 | 0.0 | 0.00 | 0.00 | 0.00 | 68 | 1016.0 | |
| 20260906025522 | 81 | 0.0 | 0.0 | 0.00 | 0.00 | 0.00 | 66 | 1015.9 | |
| 20260906024524 | 82 | 0.0 | 0.0 | 0.00 | 0.00 | 0.00 | 64 | 1015.6 | |
| 20260906023757 | 82 | 0 | 0.0 | 0.0 | 0.00 | 0.00 | 0.00 | 62 | 1012.4 |
| 20260906023527 | 83 | 0.0 | 0.0 | 0.00 | 0.00 | 0.00 | 63 | 1015.5 | |
| 20260906022528 | 83 | 125 | 0.0 | 3.0 | 0.00 | 0.00 | 0.00 | 61 | 1015.4 |
| 20260906021531 | 84 | 0.0 | 0.0 | 0.00 | 0.00 | 0.00 | 60 | 1015.2 | |
| 20260906020757 | 84 | 0 | 0.0 | 0.0 | 0.00 | 0.00 | 0.00 | 59 | 1011.8 |
| 20260906020532 | 85 | 0.0 | 0.0 | 0.00 | 0.00 | 0.00 | 59 | 1015.1 | |
| 20260906015556 | 85 | 82 | 1.0 | 3.0 | 0.00 | 0.00 | 0.00 | 58 | 1015.0 |
| 20260906014519 | 86 | 308 | 1.0 | 2.0 | 0.00 | 0.00 | 0.00 | 58 | 1014.9 |
| 20260906013757 | 86 | 2 | 0.0 | 2.0 | 0.00 | 0.00 | 0.00 | 56 | 1011.4 |
| 20260906013522 | 86 | 2 | 1.0 | 3.0 | 0.00 | 0.00 | 0.00 | 57 | 1014.8 |
| 20260906012523 | 87 | 12 | 1.0 | 3.0 | 0.00 | 0.00 | 0.00 | 55 | 1014.7 |
| 20260906011545 | 88 | 55 | 1.0 | 3.0 | 0.00 | 0.00 | 0.00 | 54 | 1014.5 |
| 20260906010757 | 88 | 49 | 1.0 | 2.0 | 0.00 | 0.00 | 0.00 | 53 | 1010.8 |
| 20260906010527 | 89 | 50 | 1.0 | 3.0 | 0.00 | 0.00 | 0.00 | 53 | 1014.5 |
| 20260906005523 | 90 | 67 | 1.0 | 3.0 | 0.00 | 0.00 | 0.00 | 53 | 1014.7 |
| 20260906004519 | 90 | 42 | 2.0 | 4.0 | 0.00 | 0.00 | 0.00 | 52 | 1014.6 |
| 20260906003757 | 91 | 355 | 2.0 | 4.0 | 0.00 | 0.00 | 0.00 | 51 | 1010.6 |
| 20260906003533 | 91 | 355 | 3.0 | 4.0 | 0.00 | 0.00 | 0.00 | 51 | 1014.5 |
| 20260906002537 | 92 | 357 | 2.0 | 4.0 | 0.00 | 0.00 | 0.00 | 50 | 1014.5 |
| 20260906001539 | 92 | 75 | 3.0 | 4.0 | 0.00 | 0.00 | 0.00 | 50 | 1014.3 |
| 20260906000757 | 92 | 39 | 4.0 | 6.0 | 0.00 | 0.00 | 0.00 | 49 | 1010.2 |
| 20260906000521 | 93 | 39 | 5.0 | 7.0 | 0.00 | 0.00 | 0.00 | 49 | 1014.3 |
| 20260905235523 | 94 | 70 | 5.0 | 9.0 | 0.00 | 0.00 | 0.00 | 47 | 1014.3 |
| 20260905234525 | 94 | 141 | 5.0 | 9.0 | 0.00 | 0.00 | 0.00 | 47 | 1014.2 |
| 20260905233757 | 94 | 150 | 4.0 | 7.0 | 0.00 | 0.00 | 0.00 | 46 | 1009.9 |
| 20260905233527 | 94 | 151 | 4.0 | 7.0 | 0.00 | 0.00 | 0.00 | 47 | 1014.1 |
| 20260905232529 | 94 | 103 | 4.0 | 7.0 | 0.00 | 0.00 | 0.00 | 47 | 1014.1 |
| 20260905231531 | 94 | 121 | 5.0 | 8.0 | 0.00 | 0.00 | 0.00 | 47 | 1014.3 |
| 20260905230757 | 93 | 145 | 4.0 | 7.0 | 0.00 | 0.00 | 0.00 | 47 | 1010.0 |
| 20260905230515 | 94 | 146 | 5.0 | 7.0 | 0.00 | 0.00 | 0.00 | 47 | 1014.3 |
| 20260905225519 | 94 | 155 | 6.0 | 9.0 | 0.00 | 0.00 | 0.00 | 48 | 1014.5 |
| 20260905224519 | 95 | 131 | 6.0 | 9.0 | 0.00 | 0.00 | 0.00 | 47 | 1014.4 |
| 20260905223757 | 94 | 134 | 4.0 | 7.0 | 0.00 | 0.00 | 0.00 | 47 | 1009.9 |
| 20260905223521 | 95 | 134 | 5.0 | 8.0 | 0.00 | 0.00 | 0.00 | 48 | 1014.3 |
| 20260905222524 | 95 | 134 | 6.0 | 10.0 | 0.00 | 0.00 | 0.00 | 49 | 1014.3 |
| 20260905221520 | 96 | 107 | 6.0 | 8.0 | 0.00 | 0.00 | 0.00 | 45 | 1014.3 |
| 20260905220757 | 96 | 122 | 5.0 | 10.0 | 0.00 | 0.00 | 0.00 | 44 | 1009.8 |
| 20260905220517 | 96 | 123 | 6.0 | 10.0 | 0.00 | 0.00 | 0.00 | 45 | 1014.3 |
| 20260905215605 | 96 | 107 | 5.0 | 11.0 | 0.00 | 0.00 | 0.00 | 46 | 1014.3 |
| 20260905214527 | 97 | 176 | 4.0 | 6.0 | 0.00 | 0.00 | 0.00 | 46 | 1014.4 |
| 20260905213757 | 97 | 130 | 6.0 | 8.0 | 0.00 | 0.00 | 0.00 | 46 | 1009.9 |
| 20260905213529 | 98 | 131 | 6.0 | 8.0 | 0.00 | 0.00 | 0.00 | 46 | 1014.5 |
| 20260905212531 | 97 | 126 | 6.0 | 9.0 | 0.00 | 0.00 | 0.00 | 47 | 1014.5 |
| 20260905211535 | 99 | 68 | 5.0 | 10.0 | 0.00 | 0.00 | 0.00 | 44 | 1014.7 |
| 20260905210757 | 98 | 101 | 4.0 | 6.0 | 0.00 | 0.00 | 0.00 | 44 | 1010.1 |
| 20260905210618 | 98 | 101 | 4.0 | 7.0 | 0.00 | 0.00 | 0.00 | 44 | 1014.8 |
| 20260905205520 | 98 | 112 | 5.0 | 9.0 | 0.00 | 0.00 | 0.00 | 46 | 1014.9 |
| 20260905204521 | 99 | 40 | 4.0 | 7.0 | 0.00 | 0.00 | 0.00 | 44 | 1015.0 |
| 20260905203757 | 97 | 121 | 3.0 | 5.0 | 0.00 | 0.00 | 0.00 | 44 | 1010.5 |
| 20260905203543 | 98 | 122 | 4.0 | 5.0 | 0.00 | 0.00 | 0.00 | 45 | 1015.1 |
| 20260905202526 | 99 | 103 | 5.0 | 7.0 | 0.00 | 0.00 | 0.00 | 45 | 1015.2 |
| 20260905201527 | 100 | 140 | 4.0 | 8.0 | 0.00 | 0.00 | 0.00 | 42 | 1015.3 |
| 20260905200757 | 99 | 107 | 3.0 | 6.0 | 0.00 | 0.00 | 0.00 | 42 | 1010.7 |
| 20260905200529 | 100 | 108 | 4.0 | 6.0 | 0.00 | 0.00 | 0.00 | 42 | 1015.5 |
| 20260905195526 | 98 | 140 | 5.0 | 9.0 | 0.00 | 0.00 | 0.00 | 44 | 1015.9 |
| 20260905194536 | 98 | 120 | 5.0 | 10.0 | 0.00 | 0.00 | 0.00 | 43 | 1016.1 |
| 20260905193757 | 98 | 130 | 5.0 | 7.0 | 0.00 | 0.00 | 0.00 | 41 | 1011.5 |
| 20260905193518 | 98 | 130 | 5.0 | 8.0 | 0.00 | 0.00 | 0.00 | 42 | 1016.2 |
| 20260905192559 | 97 | 119 | 5.0 | 7.0 | 0.00 | 0.00 | 0.00 | 43 | 1016.4 |
| 20260905191522 | 97 | 113 | 5.0 | 8.0 | 0.00 | 0.00 | 0.00 | 44 | 1016.6 |
| 20260905190757 | 97 | 1 | 3.0 | 6.0 | 0.00 | 0.00 | 0.00 | 42 | 1012.3 |
| 20260905190524 | 98 | 2 | 4.0 | 6.0 | 0.00 | 0.00 | 0.00 | 43 | 1016.9 |
| 20260905185526 | 97 | 309 | 3.0 | 5.0 | 0.00 | 0.00 | 0.00 | 46 | 1017.1 |
| 20260905184528 | 96 | 56 | 3.0 | 5.0 | 0.00 | 0.00 | 0.00 | 48 | 1017.2 |
| 20260905183757 | 95 | 140 | 4.0 | 6.0 | 0.00 | 0.00 | 0.00 | 48 | 1012.9 |
| 20260905183530 | 96 | 140 | 4.0 | 7.0 | 0.00 | 0.00 | 0.00 | 49 | 1017.3 |
| 20260905182532 | 96 | 107 | 5.0 | 7.0 | 0.00 | 0.00 | 0.00 | 50 | 1017.4 |
| 20260905181516 | 95 | 91 | 3.0 | 6.0 | 0.00 | 0.00 | 0.00 | 51 | 1017.5 |
| 20260905180757 | 95 | 98 | 4.0 | 6.0 | 0.00 | 0.00 | 0.00 | 51 | 1013.3 |
| 20260905180518 | 95 | 98 | 4.0 | 6.0 | 0.00 | 0.00 | 0.00 | 51 | 1017.7 |
| 20260905175520 | 95 | 89 | 4.0 | 8.0 | 0.00 | 0.00 | 0.00 | 53 | 1017.9 |
| 20260905174522 | 94 | 148 | 5.0 | 8.0 | 0.00 | 0.00 | 0.00 | 55 | 1018.0 |
| 20260905173757 | 93 | 101 | 4.0 | 6.0 | 0.00 | 0.00 | 0.00 | 57 | 1013.9 |
| 20260905173544 | 93 | 101 | 4.0 | 7.0 | 0.00 | 0.00 | 0.00 | 57 | 1018.0 |
| 20260905172527 | 94 | 98 | 5.0 | 9.0 | 0.00 | 0.00 | 0.00 | 57 | 1018.1 |
| 20260905171522 | 93 | 53 | 4.0 | 8.0 | 0.00 | 0.00 | 0.00 | 58 | 1018.3 |
| 20260905170757 | 92 | 92 | 5.0 | 8.0 | 0.00 | 0.00 | 0.00 | 56 | 1014.2 |
| 20260905170518 | 92 | 92 | 5.0 | 8.0 | 0.00 | 0.00 | 0.00 | 57 | 1018.2 |
| 20260905165533 | 92 | 132 | 3.0 | 4.0 | 0.00 | 0.00 | 0.00 | 58 | 1018.2 |
| 20260905164517 | 96 | 120 | 4.0 | 6.0 | 0.00 | 0.00 | 0.00 | 55 | 1018.3 |
| 20260905163757 | 93 | 139 | 4.0 | 9.0 | 0.00 | 0.00 | 0.00 | 56 | 1014.2 |
| 20260905163519 | 94 | 139 | 5.0 | 9.0 | 0.00 | 0.00 | 0.00 | 56 | 1018.4 |
| 20260905162521 | 94 | 125 | 3.0 | 6.0 | 0.00 | 0.00 | 0.00 | 57 | 1018.5 |
| 20260905161523 | 92 | 152 | 4.0 | 6.0 | 0.00 | 0.00 | 0.00 | 60 | 1018.5 |
| 20260905160757 | 90 | 120 | 3.0 | 7.0 | 0.00 | 0.00 | 0.00 | 63 | 1014.5 |
| 20260905160525 | 90 | 121 | 4.0 | 7.0 | 0.00 | 0.00 | 0.00 | 64 | 1018.3 |
| 20260905155527 | 90 | 128 | 4.0 | 6.0 | 0.00 | 0.00 | 0.00 | 65 | 1018.2 |
| 20260905154610 | 89 | 121 | 4.0 | 7.0 | 0.00 | 0.00 | 0.00 | 66 | 1018.3 |
| 20260905153757 | 89 | 124 | 3.0 | 5.0 | 0.00 | 0.00 | 0.00 | 67 | 1014.7 |
| 20260905153531 | 89 | 124 | 3.0 | 5.0 | 0.00 | 0.00 | 0.00 | 68 | 1018.4 |
| 20260905152516 | 86 | 104 | 3.0 | 5.0 | 0.00 | 0.00 | 0.00 | 73 | 1018.5 |
| 20260905151558 | 86 | 116 | 4.0 | 6.0 | 0.00 | 0.00 | 0.00 | 73 | 1018.5 |
| 20260905150757 | 85 | 25 | 3.0 | 4.0 | 0.00 | 0.00 | 0.00 | 74 | 1015.1 |
| 20260905150520 | 85 | 25 | 4.0 | 5.0 | 0.00 | 0.00 | 0.00 | 74 | 1018.5 |
| 20260905145517 | 84 | 127 | 6.0 | 9.0 | 0.00 | 0.00 | 0.00 | 76 | 1018.3 |
| 20260905144518 | 84 | 95 | 5.0 | 9.0 | 0.00 | 0.00 | 0.00 | 79 | 1018.3 |
| 20260905143757 | 81 | 132 | 3.0 | 6.0 | 0.00 | 0.00 | 0.00 | 83 | 1015.4 |
| 20260905143521 | 82 | 132 | 4.0 | 6.0 | 0.00 | 0.00 | 0.00 | 83 | 1018.3 |
| 20260905142537 | 83 | 95 | 4.0 | 6.0 | 0.00 | 0.00 | 0.00 | 82 | 1018.2 |
| 20260905141526 | 82 | 93 | 3.0 | 5.0 | 0.00 | 0.00 | 0.00 | 85 | 1018.2 |
| 20260905140757 | 81 | 118 | 3.0 | 4.0 | 0.00 | 0.00 | 0.00 | 86 | 1015.3 |
| 20260905140527 | 81 | 119 | 3.0 | 5.0 | 0.00 | 0.00 | 0.00 | 87 | 1018.1 |
| 20260905135629 | 79 | 111 | 4.0 | 5.0 | 0.00 | 0.00 | 0.00 | 90 | 1018.0 |
| 20260905134532 | 78 | 98 | 2.0 | 5.0 | 0.00 | 0.00 | 0.00 | 92 | 1018.0 |
| 20260905133757 | 77 | 146 | 2.0 | 5.0 | 0.00 | 0.00 | 0.00 | 93 | 1015.4 |
| 20260905133516 | 78 | 146 | 3.0 | 6.0 | 0.00 | 0.00 | 0.00 | 93 | 1018.0 |
| 20260905132518 | 78 | 129 | 2.0 | 5.0 | 0.00 | 0.00 | 0.00 | 93 | 1017.8 |
| 20260905131522 | 76 | 111 | 3.0 | 6.0 | 0.00 | 0.00 | 0.00 | 96 | 1017.7 |
| 20260905130757 | 75 | 127 | 2.0 | 4.0 | 0.00 | 0.00 | 0.00 | 98 | 1015.4 |
| 20260905130523 | 75 | 127 | 2.0 | 4.0 | 0.00 | 0.00 | 0.00 | 98 | 1017.7 |
| 20260905125524 | 74 | 112 | 1.0 | 4.0 | 0.00 | 0.00 | 0.00 | 99 | 1017.6 |
| 20260905124528 | 74 | 0.0 | 1.0 | 0.00 | 0.00 | 0.00 | 99 | 1017.5 | |
| 20260905123757 | 72 | 0 | 0.0 | 0.0 | 0.00 | 0.00 | 0.00 | 99 | 1015.5 |
| 20260905123528 | 73 | 0.0 | 0.0 | 0.00 | 0.00 | 0.00 | 99 | 1017.5 | |
| 20260905122530 | 73 | 0.0 | 0.0 | 0.00 | 0.00 | 0.00 | 99 | 1017.4 | |
| 20260905121526 | 72 | 106 | 0.0 | 4.0 | 0.00 | 0.00 | 0.00 | 99 | 1017.2 |
| 20260905120757 | 71 | 0 | 0.0 | 0.0 | 0.00 | 0.00 | 0.00 | 99 | 1015.2 |
| 20260905120516 | 72 | 0.0 | 0.0 | 0.00 | 0.00 | 0.00 | 99 | 1017.1 | |
| 20260905115518 | 71 | 0.0 | 0.0 | 0.00 | 0.00 | 0.00 | 99 | 1017.1 | |
| 20260905114520 | 71 | 0.0 | 0.0 | 0.00 | 0.00 | 0.00 | 99 | 1017.1 | |
| 20260905113757 | 71 | 0 | 0.0 | 0.0 | 0.00 | 0.00 | 0.00 | 99 | 1015.3 |
| 20260905113602 | 71 | 0.0 | 0.0 | 0.00 | 0.00 | 0.00 | 99 | 1017.1 | |
| 20260905112523 | 71 | 0.0 | 0.0 | 0.00 | 0.00 | 0.00 | 99 | 1017.1 | |
| 20260905111526 | 72 | 0.0 | 0.0 | 0.00 | 0.00 | 0.00 | 99 | 1017.0 |